Weather History for Entrance, BC

Change the Weather History Date:

Saturday, December 29, 2012

  Actual Average Record
Temperature  
Mean Temperature 42 °F -  
Max Temperature 43 °F - - ()
Min Temperature 40 °F - - ()
Degree Days  
Heating Degree Days 24    
Moisture  
Dew Point -    
Average Humidity    
Maximum Humidity    
Minimum Humidity    
Precipitation  
Precipitation 0.04 in - - ()
Sea Level Pressure  
Sea Level Pressure 30.16 in    
Wind  
Wind Speed 7 mph ()    
Max Wind Speed 14 mph    
Max Gust Speed -    
T = Trace of Precipitation, MM = Missing Value Source: Averaged Metar Reports

Daily Weather History Graph

Daily Weather History Graph

Search for Another Location

Airport:

Trip Planner

Search our weather history database for the weather conditions in past years. The results will help you decide how hot, cold, wet, or windy it might be!

Date:

Astronomy

Dec. 29, 2012 Rise Set
Actual Time 8:10 AM PST 4:25 PM PST
Civil Twilight 7:32 AM PST 5:02 PM PST
Nautical Twilight 6:52 AM PST 5:43 PM PST
Astronomical Twilight 6:13 AM PST 6:22 PM PST
Moon 6:13 PM PST (12/29) 8:38 AM PST (12/29)
Length of Visible Light 9h 30m
Length of Day
8h 15m
Full, 98% of the Moon is Illuminated
Dec 29
Full
Jan 4
Last Quarter
Jan 11
New
Jan 18
First Quarter
Jan 26
Full

Hourly Weather History & Observations

Time (PST) Temp. Windchill Dew Point Humidity Pressure Visibility Wind Dir Wind Speed Gust Speed Precip Events Conditions
12:00 AM 42.1 °F 38.4 °F - N/A% 30.14 in - SSE 5.8 mph - N/A   Unknown
1:00 AM 41.9 °F 36.9 °F - N/A% 30.14 in - SSE 8.1 mph - 0.01 in   Unknown
2:00 AM 41.9 °F 36.9 °F - N/A% 30.14 in - SSE 8.1 mph - 0.01 in   Unknown
3:00 AM 42.1 °F 36.6 °F - N/A% 30.15 in - SE 9.2 mph - N/A   Unknown
4:00 AM 42 °F - - % 30.15 in - SSE 6.9 mph - -  
4:00 AM 41.7 °F 37.3 °F - N/A% 30.15 in - SSE 6.9 mph - 0.02 in   Unknown
5:00 AM 41.7 °F 35.6 °F - N/A% 30.14 in - SE 10.4 mph - N/A   Unknown
6:00 AM 41.4 °F 36.8 °F - N/A% 30.14 in - SE 6.9 mph - 0.02 in   Unknown
7:00 AM 41.4 °F 39.4 °F - N/A% 30.14 in - SSE 3.5 mph - N/A   Unknown
8:00 AM 40.6 °F 35.4 °F - N/A% 30.16 in - NW 8.1 mph - 0.02 in   Unknown
9:00 AM 40.8 °F 35.6 °F - N/A% 30.16 in - WNW 8.1 mph - 0.01 in   Unknown
10:00 AM 41 °F - - % 30.16 in - North 5.8 mph - -  
10:00 AM 41.2 °F 37.3 °F - N/A% 30.16 in - North 5.8 mph - N/A   Unknown
11:00 AM 41.4 °F 36.8 °F - N/A% 30.17 in - NNW 6.9 mph - N/A   Unknown
12:00 PM 40.8 °F 38.8 °F - N/A% 30.15 in - NE 3.5 mph - N/A   Unknown
1:00 PM 41.9 °F 40.0 °F - N/A% 30.14 in - NNW 3.5 mph - N/A   Unknown
2:00 PM 41.5 °F 37.1 °F - N/A% 30.14 in - NNW 6.9 mph - N/A   Unknown
3:00 PM 41.7 °F 37.3 °F - N/A% 30.15 in - WNW 6.9 mph - N/A   Unknown
4:00 PM 42 °F - - % 30.15 in - NNW 8.1 mph - -  
4:00 PM 41.7 °F 36.7 °F - N/A% 30.15 in - NNW 8.1 mph - N/A   Unknown
5:00 PM 42.1 °F 39.2 °F - N/A% 30.17 in - NNE 4.6 mph - 0.01 in   Unknown
6:00 PM 42.3 °F 35.5 °F - N/A% 30.17 in - NW 12.7 mph - N/A   Unknown
7:00 PM 42.8 °F 35.8 °F - N/A% 30.18 in - NW 13.8 mph - N/A   Unknown
8:00 PM 42.8 °F 36.6 °F - N/A% 30.18 in - NW 11.5 mph - N/A   Unknown
9:00 PM 42.3 °F 36.3 °F - N/A% 30.19 in - NW 10.4 mph - N/A   Unknown
10:00 PM 42 °F - - % 30.20 in - NW 11.5 mph - -  
10:00 PM 42.4 °F 36.1 °F - N/A% 30.20 in - NW 11.5 mph - N/A   Unknown
11:00 PM 42.8 °F 37.0 °F - N/A% 30.22 in - NW 10.4 mph - N/A   Unknown